Home   Weather   USA   Bellingham   Past weeks
Flag for USA

Past Weather in Bellingham, Washington, USA — Yesterday and Last 2 Weeks

Currently: 50 °F. Fog. (Weather station: Bellingham International Airport, USA). See more current weather

Past Weather in Bellingham — Graph

°F

Bellingham Temperature Yesterday

Maximum temperature yesterday: 73 °F (at 2:53 pm)
Minimum temperature yesterday: 47 °F (at 5:18 am)
Average temperature yesterday: 57 °F

High & Low Weather Summary for the Past Weeks

 TemperatureHumidityPressure
High81 °F (Sep 20, 3:53 pm)100% (Sep 13, 4:53 am)30.28 "Hg (Sep 13, 4:53 am)
Low42 °F (Sep 21, 6:53 am)21% (Sep 20, 3:53 pm)29.76 "Hg (Sep 18, 5:53 pm)
Average60 °F76%30.00 "Hg
* Reported Sep 11 1:53 am — Sep 26 1:53 am, Bellingham. Weather by CustomWeather, © 2022

Note: Actual official high and low records may vary slightly from our data, if they occured in-between our weather recording intervals... More about our weather records

Bellingham Weather History for the Previous 24 Hours

Scroll right to see more
 ConditionsComfort  
Time TempWeatherWind HumidityBarometerVisibility
1:53 am
Mon, Sep 26
52 °FFog.No wind93%30.04 "Hg6 mi
1:34 am52 °FFog.No wind100%30.03 "Hg3 mi
12:53 am52 °FClear.No wind100%30.05 "Hg10 mi
11:53 pm
Sun, Sep 25
53 °FClear.No wind96%30.05 "Hg10 mi
10:53 pm54 °FClear.No wind100%30.06 "Hg10 mi
9:53 pm56 °FClear.No wind97%30.06 "Hg10 mi
8:53 pm57 °FClear.No wind93%30.06 "Hg10 mi
7:53 pm59 °FClear.No wind93%30.07 "Hg10 mi
6:53 pm63 °FPassing clouds.No wind87%30.08 "Hg10 mi
5:53 pm70 °FSunny.3 mph66%30.08 "Hg10 mi
3:53 pm73 °FSunny.9 mph59%30.12 "Hg10 mi
2:53 pm73 °FSunny.6 mph57%30.14 "Hg10 mi
1:53 pm72 °FSunny.8 mph59%30.16 "Hg10 mi
12:53 pm70 °FSunny.6 mph64%30.18 "Hg10 mi
11:53 am68 °FSunny.5 mph68%30.19 "Hg10 mi
10:53 am69 °FSunny.3 mph61%30.20 "Hg10 mi
9:53 am63 °FSunny.3 mph75%30.21 "Hg10 mi
8:53 am59 °FSunny.No wind87%30.22 "Hg10 mi
7:53 am50 °FSunny.No wind100%30.22 "Hg10 mi
7:16 am49 °FSunny.No wind100%30.20 "Hg8 mi
7:12 am49 °FFog.3 mph100%30.20 "Hg0 mi
6:42 am49 °FFog.No wind100%30.19 "Hg0 mi
6:34 am48 °FFog.No wind100%30.19 "Hg2 mi
5:38 am49 °FFog.No wind100%30.19 "Hg6 mi
5:18 am47 °FFog.No wind100%30.18 "Hg1 mi
4:39 am49 °FFog.No wind100%30.19 "Hg0 mi
4:02 am50 °FFog.No wind100%30.19 "Hg1 mi
3:37 am50 °FFog.No wind100%30.19 "Hg1 mi
3:07 am51 °FFog.No wind100%30.20 "Hg2 mi
Weather by CustomWeather, © 2022

See weather overview